When you browse on this site, cookies collect data to enhance your experience and personalize the content and advertising you see.
Visit our Privacy Policy to learn more. By continuing to use the site, you agree to this use of cookies and data.
  • In Romania
  • List of Countries
  • For 7 days
  • Water Temperature
  • Satellite Maps
  • Weather Map
  • Weather Widgets
  • user-avatar
    Login

    Hourly Weather Zhuravli

    Today, 21 March, Thursday

    Time Temperature Precipitation Wind Pressure Humidity
    00:00 -2°C° 0 mm 2 mps 756 mmHg 98%
    01:00 -2°C° 0 mm 2 mps 755 mmHg 98%
    02:00 -3°C° 0 mm 2 mps 755 mmHg 97%
    03:00 -3°C° 0 mm 2 mps 754 mmHg 97%
    04:00 -4°C° 0 mm 2 mps 754 mmHg 97%
    05:00 -4°C° 0 mm 2 mps 754 mmHg 96%
    06:00 -4°C° 0 mm 2 mps 754 mmHg 96%
    07:00 -3°C° 0 mm 2 mps 754 mmHg 97%
    08:00 -3°C° 0 mm 2 mps 754 mmHg 98%
    09:00 -2°C° 0 mm 2 mps 753 mmHg 99%
    10:00 -2°C° 0.1 mm 2 mps 753 mmHg 99%
    11:00 -2°C° 0.1 mm 2 mps 753 mmHg 99%
    12:00 -1°C° 0.1 mm 2 mps 753 mmHg 99%
    13:00 -1°C° 0.1 mm 2 mps 753 mmHg 99%
    14:00 -1°C° 0.1 mm 2 mps 753 mmHg 99%
    15:00 -1°C° 0 mm 2 mps 752 mmHg 99%
    16:00 -1°C° 0 mm 2 mps 752 mmHg 99%
    17:00 -1°C° 0 mm 2 mps 752 mmHg 98%
    18:00 -1°C° 0 mm 2 mps 752 mmHg 97%
    19:00 -1°C° 0.1 mm 2 mps 752 mmHg 97%
    20:00 -1°C° 0.1 mm 2 mps 752 mmHg 97%
    21:00 -1°C° 0.1 mm 2 mps 752 mmHg 97%
    22:00 -1°C° 0.1 mm 2 mps 752 mmHg 97%
    23:00 -1°C° 0.1 mm 2 mps 752 mmHg 97%

    Tomorrow, 22 March, Friday

    Time Temperature Precipitation Wind Pressure Humidity
    00:00 -1°C° 0.1 mm 2 mps 752 mmHg 97%
    01:00 -1°C° 0 mm 2 mps 751 mmHg 97%
    02:00 -1°C° 0 mm 2 mps 751 mmHg 97%
    03:00 -1°C° 0 mm 2 mps 751 mmHg 97%
    04:00 +1°C° 0 mm 1 mps 751 mmHg 97%
    05:00 +1°C° 0 mm 1 mps 751 mmHg 97%
    06:00 0°C° 0 mm 1 mps 751 mmHg 97%
    07:00 +1°C° 0 mm 1 mps 751 mmHg 98%
    08:00 +1°C° 0 mm 1 mps 751 mmHg 99%
    09:00 +1°C° 0 mm 1 mps 751 mmHg 99%
    10:00 +2°C° 0 mm 1 mps 751 mmHg 99%
    11:00 +2°C° 0 mm 1 mps 750 mmHg 99%
    12:00 +2°C° 0 mm 1 mps 750 mmHg 99%
    13:00 +2°C° 0.1 mm 1 mps 750 mmHg 99%
    14:00 +2°C° 0.1 mm 1 mps 750 mmHg 99%
    15:00 +2°C° 0.1 mm 1 mps 749 mmHg 99%
    16:00 +2°C° 0.2 mm 1 mps 749 mmHg 99%
    17:00 -1°C° 0.2 mm 2 mps 749 mmHg 98%
    18:00 -1°C° 0.2 mm 2 mps 748 mmHg 98%
    19:00 -1°C° 0.5 mm 2 mps 748 mmHg 98%
    20:00 -1°C° 0.5 mm 2 mps 748 mmHg 97%
    21:00 -1°C° 0.5 mm 2 mps 748 mmHg 97%
    22:00 -1°C° 0.4 mm 2 mps 748 mmHg 97%
    23:00 -2°C° 0.4 mm 3 mps 748 mmHg 97%

    Day after tomorrow, 23 March, Saturday

    Time Temperature Precipitation Wind Pressure Humidity
    00:00 -2°C° 0.4 mm 3 mps 748 mmHg 97%
    01:00 -2°C° 0.3 mm 3 mps 748 mmHg 96%
    02:00 -2°C° 0.3 mm 3 mps 748 mmHg 96%
    03:00 -2°C° 0.3 mm 2 mps 748 mmHg 96%
    04:00 -2°C° 0 mm 2 mps 748 mmHg 96%
    05:00 -2°C° 0 mm 2 mps 748 mmHg 96%
    06:00 -2°C° 0 mm 2 mps 748 mmHg 96%
    07:00 -2°C° 0 mm 2 mps 748 mmHg 97%
    08:00 -1°C° 0 mm 2 mps 749 mmHg 98%
    09:00 -1°C° 0 mm 2 mps 749 mmHg 99%
    10:00 -1°C° 0 mm 2 mps 750 mmHg 99%
    11:00 -1°C° 0 mm 2 mps 750 mmHg 99%
    12:00 +1°C° 0 mm 2 mps 750 mmHg 99%
    13:00 +1°C° 0 mm 2 mps 751 mmHg 99%
    14:00 +1°C° 0 mm 2 mps 751 mmHg 99%
    15:00 -1°C° 0 mm 2 mps 751 mmHg 98%
    16:00 +1°C° 0 mm 1 mps 751 mmHg 96%
    17:00 0°C° 0 mm 1 mps 751 mmHg 94%
    18:00 0°C° 0 mm 1 mps 752 mmHg 92%
    19:00 -1°C° 0 mm 1 mps 752 mmHg 91%
    20:00 -1°C° 0 mm 1 mps 752 mmHg 91%
    21:00 -2°C° 0 mm 1 mps 753 mmHg 90%
    22:00 -2°C° 0 mm 1 mps 753 mmHg 90%
    23:00 -2°C° 0 mm 1 mps 753 mmHg 90%

    24 March, Sunday

    Time Temperature Precipitation Wind Pressure Humidity
    00:00 -2°C° 0 mm 1 mps 753 mmHg 90%
    01:00 -2°C° 0 mm 1 mps 753 mmHg 91%
    02:00 -2°C° 0 mm 1 mps 753 mmHg 91%
    03:00 -2°C° 0 mm 1 mps 753 mmHg 91%
    04:00 -4°C° 0 mm 2 mps 753 mmHg 91%
    05:00 -4°C° 0 mm 2 mps 753 mmHg 92%
    06:00 -4°C° 0 mm 2 mps 753 mmHg 92%
    07:00 -3°C° 0 mm 2 mps 753 mmHg 91%
    08:00 -3°C° 0 mm 2 mps 753 mmHg 90%
    09:00 -2°C° 0 mm 2 mps 752 mmHg 90%
    10:00 -1°C° 0 mm 2 mps 752 mmHg 91%
    11:00 -1°C° 0 mm 2 mps 752 mmHg 92%
    12:00 +1°C° 0 mm 2 mps 752 mmHg 94%
    13:00 +1°C° 0 mm 2 mps 751 mmHg 94%
    14:00 +1°C° 0 mm 2 mps 751 mmHg 94%
    15:00 +1°C° 0 mm 2 mps 751 mmHg 95%
    16:00 0°C° 0 mm 3 mps 750 mmHg 94%
    17:00 -1°C° 0 mm 3 mps 750 mmHg 93%
    18:00 -1°C° 0 mm 3 mps 750 mmHg 92%
    19:00 -1°C° 0 mm 2 mps 750 mmHg 92%
    20:00 -1°C° 0 mm 2 mps 750 mmHg 92%
    21:00 -1°C° 0 mm 2 mps 750 mmHg 92%
    22:00 -2°C° 0 mm 2 mps 749 mmHg 93%
    23:00 -2°C° 0 mm 2 mps 749 mmHg 94%

    25 March, Monday

    Time Temperature Precipitation Wind Pressure Humidity
    00:00 -1°C° 0 mm 1 mps 748 mmHg 94%
    01:00 -1°C° 0.2 mm 1 mps 748 mmHg 95%
    02:00 -2°C° 0.2 mm 2 mps 747 mmHg 96%
    03:00 -2°C° 0.2 mm 2 mps 747 mmHg 96%
    04:00 0°C° 0.4 mm 1 mps 746 mmHg 96%
    05:00 0°C° 0.4 mm 1 mps 746 mmHg 97%
    06:00 0°C° 0.4 mm 1 mps 745 mmHg 97%
    07:00 0°C° 0.4 mm 1 mps 744 mmHg 97%
    08:00 0°C° 0.4 mm 1 mps 744 mmHg 96%
    09:00 -1°C° 0.4 mm 2 mps 743 mmHg 96%
    10:00 -1°C° 0.4 mm 3 mps 743 mmHg 95%
    11:00 -1°C° 0.4 mm 3 mps 742 mmHg 94%
    12:00 -2°C° 0.4 mm 4 mps 741 mmHg 93%
    13:00 -1°C° 0.1 mm 4 mps 741 mmHg 90%
    14:00 -1°C° 0.1 mm 4 mps 742 mmHg 88%
    15:00 -1°C° 0.1 mm 4 mps 742 mmHg 85%
    16:00 -1°C° 0 mm 4 mps 742 mmHg 87%
    17:00 -1°C° 0 mm 4 mps 743 mmHg 88%
    18:00 -1°C° 0 mm 3 mps 743 mmHg 90%
    19:00 -2°C° 0 mm 4 mps 744 mmHg 91%
    20:00 -2°C° 0 mm 4 mps 744 mmHg 92%
    21:00 -2°C° 0 mm 4 mps 745 mmHg 93%
    22:00 -2°C° 0 mm 4 mps 745 mmHg 93%
    23:00 -3°C° 0 mm 4 mps 745 mmHg 93%

    26 March, Tuesday

    Time Temperature Precipitation Wind Pressure Humidity
    00:00 -2°C° 0 mm 3 mps 745 mmHg 93%
    01:00 -4°C° 0 mm 3 mps 745 mmHg 94%
    02:00 -4°C° 0 mm 3 mps 746 mmHg 94%
    03:00 -4°C° 0 mm 2 mps 746 mmHg 94%
    04:00 -4°C° 0 mm 2 mps 747 mmHg 94%
    05:00 -4°C° 0 mm 2 mps 747 mmHg 94%
    06:00 -4°C° 0 mm 2 mps 748 mmHg 94%
    07:00 -3°C° 0 mm 2 mps 748 mmHg 91%
    08:00 -2°C° 0 mm 2 mps 749 mmHg 89%
    09:00 -1°C° 0 mm 2 mps 749 mmHg 86%
    10:00 +1°C° 0 mm 2 mps 749 mmHg 84%
    11:00 +1°C° 0 mm 2 mps 750 mmHg 83%
    12:00 +2°C° 0 mm 2 mps 750 mmHg 81%
    13:00 +1°C° 0 mm 3 mps 750 mmHg 79%
    14:00 +1°C° 0 mm 3 mps 750 mmHg 76%
    15:00 +1°C° 0 mm 3 mps 751 mmHg 74%
    16:00 0°C° 0 mm 3 mps 751 mmHg 77%
    17:00 -1°C° 0 mm 2 mps 751 mmHg 80%
    18:00 -2°C° 0 mm 2 mps 751 mmHg 83%
    19:00 -2°C° 0 mm 2 mps 751 mmHg 84%
    20:00 -3°C° 0 mm 2 mps 752 mmHg 84%
    21:00 -3°C° 0 mm 2 mps 752 mmHg 85%
    22:00 -3°C° 0 mm 2 mps 752 mmHg 85%
    23:00 -4°C° 0 mm 2 mps 752 mmHg 85%
    Show more